Location: Deurze
(52.9838°N, 6.6090°E)
Time: 18:04:49
(UTC+00:00)

Resurs 01 Rocket - Pass Details

Date: 11 March 2026
Orbit: 625 x 637 km, 97.7° (Epoch: 20 April)

Event Time Altitude Azimuth Distance (km) Brightness Sun altitude
Rises 17:58:48 0° 156° (SSE) 2,928 4.8 -5.1°
Reaches altitude 10° 18:01:00 10° 153° (SSE) 2,024 3.9 -5.4°
Maximum altitude 18:05:22 67° 72° (ENE) 697 1.6 -6.1°
Drops below altitude 10° 18:09:47 10° 350° (N) 2,037 4.4 -6.7°
Sets 18:12:00 0° 348° (NNW) 2,949 5.3 -7.1°
